owner,sensor,date,latitude,longitude,air_pressure(mBar),qcFlag 
WAVCIS,ioos:station:WAVCIS:CSI03:1,2012-06-01T00:00:00Z,29.4412,-92.0613,1001.358,11111222 
WAVCIS,ioos:station:WAVCIS:CSI03:1,2012-06-01T01:00:00Z,29.4412,-92.0613,1002.698,11111222 
WAVCIS,ioos:station:WAVCIS:CSI03:1,2012-06-01T02:00:00Z,29.4412,-92.0613,1002.95,11111222 
WAVCIS,ioos:station:WAVCIS:CSI03:1,2012-06-01T03:00:00Z,29.4412,-92.0613,1004.18,11111222 
WAVCIS,ioos:station:WAVCIS:CSI03:1,2012-06-01T04:00:00Z,29.4412,-92.0613,1004.47,11111222 
WAVCIS,ioos:station:WAVCIS:CSI03:1,2012-06-01T05:00:00Z,29.4412,-92.0613,1004.64,11111222 
WAVCIS,ioos:station:WAVCIS:CSI03:1,2012-06-01T06:00:00Z,29.4412,-92.0613,1004.65,11111222 
WAVCIS,ioos:station:WAVCIS:CSI03:1,2012-06-01T07:00:00Z,29.4412,-92.0613,1004.32,11111222 
WAVCIS,ioos:station:WAVCIS:CSI03:1,2012-06-01T08:00:00Z,29.4412,-92.0613,1004.26,11111222 
WAVCIS,ioos:station:WAVCIS:CSI03:1,2012-06-01T09:00:00Z,29.4412,-92.0613,1004.24,11111222 
WAVCIS,ioos:station:WAVCIS:CSI03:1,2012-06-01T10:00:00Z,29.4412,-92.0613,1004.24,11111222 
WAVCIS,ioos:station:WAVCIS:CSI03:1,2012-06-01T11:00:00Z,29.4412,-92.0613,1004.71,11111222 
WAVCIS,ioos:station:WAVCIS:CSI03:1,2012-06-01T12:00:00Z,29.4412,-92.0613,1005.91,11111222 
WAVCIS,ioos:station:WAVCIS:CSI03:1,2012-06-01T13:00:00Z,29.4412,-92.0613,1006.65,11111222 
WAVCIS,ioos:station:WAVCIS:CSI03:1,2012-06-01T14:00:00Z,29.4412,-92.0613,1007.1,11111222 
WAVCIS,ioos:station:WAVCIS:CSI03:1,2012-06-01T15:00:00Z,29.4412,-92.0613,1007.19,11111222 
WAVCIS,ioos:station:WAVCIS:CSI03:1,2012-06-01T16:00:00Z,29.4412,-92.0613,1007.65,11111222 
WAVCIS,ioos:station:WAVCIS:CSI03:1,2012-06-01T17:00:00Z,29.4412,-92.0613,1007.49,11111222 
WAVCIS,ioos:station:WAVCIS:CSI03:1,2012-06-01T18:00:00Z,29.4412,-92.0613,1007.08,11111222 
WAVCIS,ioos:station:WAVCIS:CSI03:1,2012-06-01T19:00:00Z,29.4412,-92.0613,1006.03,11111222 
WAVCIS,ioos:station:WAVCIS:CSI03:1,2012-06-01T20:00:00Z,29.4412,-92.0613,1006.04,11111222 
WAVCIS,ioos:station:WAVCIS:CSI03:1,2012-06-01T21:00:00Z,29.4412,-92.0613,1005.7,11111222 
WAVCIS,ioos:station:WAVCIS:CSI03:1,2012-06-01T22:00:00Z,29.4412,-92.0613,1005.33,11111222 
WAVCIS,ioos:station:WAVCIS:CSI03:1,2012-06-01T23:00:00Z,29.4412,-92.0613,1005.43,11111222 
WAVCIS,ioos:station:WAVCIS:CSI03:1,2012-06-02T00:00:00Z,29.4412,-92.0613,1005.53,11111222 
WAVCIS,ioos:station:WAVCIS:CSI03:1,2012-06-02T01:00:00Z,29.4412,-92.0613,1005.78,11111222 
WAVCIS,ioos:station:WAVCIS:CSI03:1,2012-06-02T02:00:00Z,29.4412,-92.0613,1005.94,11111222 
WAVCIS,ioos:station:WAVCIS:CSI03:1,2012-06-02T03:00:00Z,29.4412,-92.0613,1006.47,11111222 
WAVCIS,ioos:station:WAVCIS:CSI03:1,2012-06-02T04:00:00Z,29.4412,-92.0613,1007.03,11111222 
WAVCIS,ioos:station:WAVCIS:CSI03:1,2012-06-02T05:00:00Z,29.4412,-92.0613,1007.43,11111222 
WAVCIS,ioos:station:WAVCIS:CSI03:1,2012-06-02T06:00:00Z,29.4412,-92.0613,1007.84,11111222 
WAVCIS,ioos:station:WAVCIS:CSI03:1,2012-06-02T07:00:00Z,29.4412,-92.0613,1007.96,11111222 
WAVCIS,ioos:station:WAVCIS:CSI03:1,2012-06-02T08:00:00Z,29.4412,-92.0613,1008.06,11111222 
WAVCIS,ioos:station:WAVCIS:CSI03:1,2012-06-02T09:00:00Z,29.4412,-92.0613,1007.77,11111222 
WAVCIS,ioos:station:WAVCIS:CSI03:1,2012-06-02T10:00:00Z,29.4412,-92.0613,1007.65,11111222 
WAVCIS,ioos:station:WAVCIS:CSI03:1,2012-06-02T11:00:00Z,29.4412,-92.0613,1008.1,11111222 
WAVCIS,ioos:station:WAVCIS:CSI03:1,2012-06-02T12:00:00Z,29.4412,-92.0613,1008.78,11111222 
WAVCIS,ioos:station:WAVCIS:CSI03:1,2012-06-02T13:00:00Z,29.4412,-92.0613,1009.3,11111222 
WAVCIS,ioos:station:WAVCIS:CSI03:1,2012-06-02T14:00:00Z,29.4412,-92.0613,1009.54,11111222 
WAVCIS,ioos:station:WAVCIS:CSI03:1,2012-06-02T15:00:00Z,29.4412,-92.0613,1010.08,11111222 
WAVCIS,ioos:station:WAVCIS:CSI03:1,2012-06-02T16:00:00Z,29.4412,-92.0613,1009.86,11111222 
WAVCIS,ioos:station:WAVCIS:CSI03:1,2012-06-02T17:00:00Z,29.4412,-92.0613,1009.62,11111222 
WAVCIS,ioos:station:WAVCIS:CSI03:1,2012-06-02T18:00:00Z,29.4412,-92.0613,1009.85,11111222 
WAVCIS,ioos:station:WAVCIS:CSI03:1,2012-06-02T19:00:00Z,29.4412,-92.0613,1009.22,11111222 
WAVCIS,ioos:station:WAVCIS:CSI03:1,2012-06-02T20:00:00Z,29.4412,-92.0613,1008.66,11111222 
WAVCIS,ioos:station:WAVCIS:CSI03:1,2012-06-02T21:00:00Z,29.4412,-92.0613,1008.25,11111222 
WAVCIS,ioos:station:WAVCIS:CSI03:1,2012-06-02T22:00:00Z,29.4412,-92.0613,1007.83,11111222 
WAVCIS,ioos:station:WAVCIS:CSI03:1,2012-06-02T23:00:00Z,29.4412,-92.0613,1007.54,11111222 
WAVCIS,ioos:station:WAVCIS:CSI03:1,2012-06-03T00:00:00Z,29.4412,-92.0613,1007.4,11111222 
WAVCIS,ioos:station:WAVCIS:CSI03:1,2012-06-03T01:00:00Z,29.4412,-92.0613,1007.57,11111222 
WAVCIS,ioos:station:WAVCIS:CSI03:1,2012-06-03T02:00:00Z,29.4412,-92.0613,1007.56,11111222 
WAVCIS,ioos:station:WAVCIS:CSI03:1,2012-06-03T03:00:00Z,29.4412,-92.0613,1008.16,11111222 
WAVCIS,ioos:station:WAVCIS:CSI03:1,2012-06-03T04:00:00Z,29.4412,-92.0613,1008.48,11111222 
WAVCIS,ioos:station:WAVCIS:CSI03:1,2012-06-03T05:00:00Z,29.4412,-92.0613,1008.46,11111222 
WAVCIS,ioos:station:WAVCIS:CSI03:1,2012-06-03T06:00:00Z,29.4412,-92.0613,1008.27,11111222 
WAVCIS,ioos:station:WAVCIS:CSI03:1,2012-06-03T07:00:00Z,29.4412,-92.0613,1007.95,11111222 
WAVCIS,ioos:station:WAVCIS:CSI03:1,2012-06-03T08:00:00Z,29.4412,-92.0613,1007.75,11111222 
WAVCIS,ioos:station:WAVCIS:CSI03:1,2012-06-03T09:00:00Z,29.4412,-92.0613,1008.07,11111222 
WAVCIS,ioos:station:WAVCIS:CSI03:1,2012-06-03T10:00:00Z,29.4412,-92.0613,1008.44,11111222 
WAVCIS,ioos:station:WAVCIS:CSI03:1,2012-06-03T11:00:00Z,29.4412,-92.0613,1008.81,11111222 
WAVCIS,ioos:station:WAVCIS:CSI03:1,2012-06-03T12:00:00Z,29.4412,-92.0613,1009.07,11111222 
WAVCIS,ioos:station:WAVCIS:CSI03:1,2012-06-03T13:00:00Z,29.4412,-92.0613,1009.98,11111222 
WAVCIS,ioos:station:WAVCIS:CSI03:1,2012-06-03T14:00:00Z,29.4412,-92.0613,1010.31,11111222 
WAVCIS,ioos:station:WAVCIS:CSI03:1,2012-06-03T15:00:00Z,29.4412,-92.0613,1010.28,11111222 
WAVCIS,ioos:station:WAVCIS:CSI03:1,2012-06-03T16:00:00Z,29.4412,-92.0613,1009.98,11111222 
WAVCIS,ioos:station:WAVCIS:CSI03:1,2012-06-03T17:00:00Z,29.4412,-92.0613,1010.19,11111222 
WAVCIS,ioos:station:WAVCIS:CSI03:1,2012-06-03T18:00:00Z,29.4412,-92.0613,1010.15,11111222 
WAVCIS,ioos:station:WAVCIS:CSI03:1,2012-06-03T19:00:00Z,29.4412,-92.0613,1009.45,11111222 
WAVCIS,ioos:station:WAVCIS:CSI03:1,2012-06-03T20:00:00Z,29.4412,-92.0613,1009.18,11111222 
WAVCIS,ioos:station:WAVCIS:CSI03:1,2012-06-03T21:00:00Z,29.4412,-92.0613,1008.46,11111222 
WAVCIS,ioos:station:WAVCIS:CSI03:1,2012-06-03T22:00:00Z,29.4412,-92.0613,1007.99,11111222 
WAVCIS,ioos:station:WAVCIS:CSI03:1,2012-06-03T23:00:00Z,29.4412,-92.0613,1007.64,11111222 
WAVCIS,ioos:station:WAVCIS:CSI03:1,2012-06-04T00:00:00Z,29.4412,-92.0613,1007.18,11111222 
WAVCIS,ioos:station:WAVCIS:CSI03:1,2012-06-04T01:00:00Z,29.4412,-92.0613,1007.7,11111222 
WAVCIS,ioos:station:WAVCIS:CSI03:1,2012-06-04T02:00:00Z,29.4412,-92.0613,1007.78,11111222 
WAVCIS,ioos:station:WAVCIS:CSI03:1,2012-06-04T03:00:00Z,29.4412,-92.0613,1008.04,11111222 
WAVCIS,ioos:station:WAVCIS:CSI03:1,2012-06-04T04:00:00Z,29.4412,-92.0613,1008.51,11111222 
WAVCIS,ioos:station:WAVCIS:CSI03:1,2012-06-04T05:00:00Z,29.4412,-92.0613,1008.21,11111222 
WAVCIS,ioos:station:WAVCIS:CSI03:1,2012-06-04T06:00:00Z,29.4412,-92.0613,1007.65,11111222 
WAVCIS,ioos:station:WAVCIS:CSI03:1,2012-06-04T07:00:00Z,29.4412,-92.0613,1007.25,11111222 
WAVCIS,ioos:station:WAVCIS:CSI03:1,2012-06-04T08:00:00Z,29.4412,-92.0613,1007.13,11111222 
WAVCIS,ioos:station:WAVCIS:CSI03:1,2012-06-04T09:00:00Z,29.4412,-92.0613,1007.23,11111222 
WAVCIS,ioos:station:WAVCIS:CSI03:1,2012-06-04T10:00:00Z,29.4412,-92.0613,1007.17,11111222 
WAVCIS,ioos:station:WAVCIS:CSI03:1,2012-06-04T11:00:00Z,29.4412,-92.0613,1006.92,11111222 
WAVCIS,ioos:station:WAVCIS:CSI03:1,2012-06-04T12:00:00Z,29.4412,-92.0613,1007.18,11111222 
WAVCIS,ioos:station:WAVCIS:CSI03:1,2012-06-04T13:00:00Z,29.4412,-92.0613,1007.33,11111222 
WAVCIS,ioos:station:WAVCIS:CSI03:1,2012-06-04T14:00:00Z,29.4412,-92.0613,1007.64,11111222 
WAVCIS,ioos:station:WAVCIS:CSI03:1,2012-06-04T15:00:00Z,29.4412,-92.0613,1007.84,11111222 
WAVCIS,ioos:station:WAVCIS:CSI03:1,2012-06-04T16:00:00Z,29.4412,-92.0613,1007.81,11111222 
WAVCIS,ioos:station:WAVCIS:CSI03:1,2012-06-04T17:00:00Z,29.4412,-92.0613,1007.82,11111222 
WAVCIS,ioos:station:WAVCIS:CSI03:1,2012-06-04T18:00:00Z,29.4412,-92.0613,1007.6,11111222 
WAVCIS,ioos:station:WAVCIS:CSI03:1,2012-06-04T19:00:00Z,29.4412,-92.0613,1007.29,11111222 
WAVCIS,ioos:station:WAVCIS:CSI03:1,2012-06-04T20:00:00Z,29.4412,-92.0613,1006.56,11111222 
WAVCIS,ioos:station:WAVCIS:CSI03:1,2012-06-04T21:00:00Z,29.4412,-92.0613,1005.86,11111222 
WAVCIS,ioos:station:WAVCIS:CSI03:1,2012-06-04T22:00:00Z,29.4412,-92.0613,1005.14,11111222 
WAVCIS,ioos:station:WAVCIS:CSI03:1,2012-06-04T23:00:00Z,29.4412,-92.0613,1004.46,11111222 
WAVCIS,ioos:station:WAVCIS:CSI03:1,2012-06-05T00:00:00Z,29.4412,-92.0613,1003.85,11111222 
WAVCIS,ioos:station:WAVCIS:CSI03:1,2012-06-05T01:00:00Z,29.4412,-92.0613,1004.34,11111222 
WAVCIS,ioos:station:WAVCIS:CSI03:1,2012-06-05T02:00:00Z,29.4412,-92.0613,1004.44,11111222 
WAVCIS,ioos:station:WAVCIS:CSI03:1,2012-06-05T03:00:00Z,29.4412,-92.0613,1004.04,11111222 
WAVCIS,ioos:station:WAVCIS:CSI03:1,2012-06-05T04:00:00Z,29.4412,-92.0613,1003.97,11111222 
WAVCIS,ioos:station:WAVCIS:CSI03:1,2012-06-05T05:00:00Z,29.4412,-92.0613,1003.043,11111222 
WAVCIS,ioos:station:WAVCIS:CSI03:1,2012-06-05T06:00:00Z,29.4412,-92.0613,1003.18,11111222 
WAVCIS,ioos:station:WAVCIS:CSI03:1,2012-06-05T07:00:00Z,29.4412,-92.0613,1003.09,11111222 
WAVCIS,ioos:station:WAVCIS:CSI03:1,2012-06-05T08:00:00Z,29.4412,-92.0613,1003.014,11111222 
WAVCIS,ioos:station:WAVCIS:CSI03:1,2012-06-05T09:00:00Z,29.4412,-92.0613,1003.23,11111222 
WAVCIS,ioos:station:WAVCIS:CSI03:1,2012-06-05T10:00:00Z,29.4412,-92.0613,1003.15,11111222 
WAVCIS,ioos:station:WAVCIS:CSI03:1,2012-06-05T11:00:00Z,29.4412,-92.0613,1003.64,11111222 
WAVCIS,ioos:station:WAVCIS:CSI03:1,2012-06-05T12:00:00Z,29.4412,-92.0613,1003.84,11111222 
WAVCIS,ioos:station:WAVCIS:CSI03:1,2012-06-05T13:00:00Z,29.4412,-92.0613,1004.19,11111222 
WAVCIS,ioos:station:WAVCIS:CSI03:1,2012-06-05T14:00:00Z,29.4412,-92.0613,1004.32,11111222 
WAVCIS,ioos:station:WAVCIS:CSI03:1,2012-06-05T15:00:00Z,29.4412,-92.0613,1003.84,11111222 
WAVCIS,ioos:station:WAVCIS:CSI03:1,2012-06-05T16:00:00Z,29.4412,-92.0613,1003.52,11111222 
WAVCIS,ioos:station:WAVCIS:CSI03:1,2012-06-05T17:00:00Z,29.4412,-92.0613,1003.11,11111222 
WAVCIS,ioos:station:WAVCIS:CSI03:1,2012-06-05T18:00:00Z,29.4412,-92.0613,1002.602,11111222 
WAVCIS,ioos:station:WAVCIS:CSI03:1,2012-06-05T19:00:00Z,29.4412,-92.0613,1002.231,11111222 
WAVCIS,ioos:station:WAVCIS:CSI03:1,2012-06-05T20:00:00Z,29.4412,-92.0613,1001.992,11111222 
WAVCIS,ioos:station:WAVCIS:CSI03:1,2012-06-05T21:00:00Z,29.4412,-92.0613,1001.455,11111222 
WAVCIS,ioos:station:WAVCIS:CSI03:1,2012-06-05T22:00:00Z,29.4412,-92.0613,1000.923,11111222 
WAVCIS,ioos:station:WAVCIS:CSI03:1,2012-06-05T23:00:00Z,29.4412,-92.0613,1000.533,11111222 
WAVCIS,ioos:station:WAVCIS:CSI03:1,2012-06-06T00:00:00Z,29.4412,-92.0613,1000.34,11111222 
WAVCIS,ioos:station:WAVCIS:CSI03:1,2012-06-06T01:00:00Z,29.4412,-92.0613,1000.234,11111222 
WAVCIS,ioos:station:WAVCIS:CSI03:1,2012-06-06T02:00:00Z,29.4412,-92.0613,1000.965,11111222 
WAVCIS,ioos:station:WAVCIS:CSI03:1,2012-06-06T03:00:00Z,29.4412,-92.0613,1001.608,11111222 
WAVCIS,ioos:station:WAVCIS:CSI03:1,2012-06-06T04:00:00Z,29.4412,-92.0613,1002.103,11111222 
WAVCIS,ioos:station:WAVCIS:CSI03:1,2012-06-06T05:00:00Z,29.4412,-92.0613,1002.198,11111222 
WAVCIS,ioos:station:WAVCIS:CSI03:1,2012-06-06T06:00:00Z,29.4412,-92.0613,1002.182,11111222 
WAVCIS,ioos:station:WAVCIS:CSI03:1,2012-06-06T07:00:00Z,29.4412,-92.0613,1001.768,11111222 
WAVCIS,ioos:station:WAVCIS:CSI03:1,2012-06-06T08:00:00Z,29.4412,-92.0613,1001.801,11111222 
WAVCIS,ioos:station:WAVCIS:CSI03:1,2012-06-06T09:00:00Z,29.4412,-92.0613,1001.645,11111222 
WAVCIS,ioos:station:WAVCIS:CSI03:1,2012-06-06T10:00:00Z,29.4412,-92.0613,1002.064,11111222 
WAVCIS,ioos:station:WAVCIS:CSI03:1,2012-06-06T11:00:00Z,29.4412,-92.0613,1002.527,11111222 
WAVCIS,ioos:station:WAVCIS:CSI03:1,2012-06-06T12:00:00Z,29.4412,-92.0613,1002.807,11111222 
WAVCIS,ioos:station:WAVCIS:CSI03:1,2012-06-06T13:00:00Z,29.4412,-92.0613,1002.963,11111222 
WAVCIS,ioos:station:WAVCIS:CSI03:1,2012-06-06T14:00:00Z,29.4412,-92.0613,1003.35,11111222 
WAVCIS,ioos:station:WAVCIS:CSI03:1,2012-06-06T15:00:00Z,29.4412,-92.0613,1003.63,11111222 
WAVCIS,ioos:station:WAVCIS:CSI03:1,2012-06-06T16:00:00Z,29.4412,-92.0613,1003.87,11111222 
WAVCIS,ioos:station:WAVCIS:CSI03:1,2012-06-06T17:00:00Z,29.4412,-92.0613,1003.91,11111222 
WAVCIS,ioos:station:WAVCIS:CSI03:1,2012-06-06T18:00:00Z,29.4412,-92.0613,1003.61,11111222 
WAVCIS,ioos:station:WAVCIS:CSI03:1,2012-06-06T19:00:00Z,29.4412,-92.0613,1003.37,11111222 
WAVCIS,ioos:station:WAVCIS:CSI03:1,2012-06-06T20:00:00Z,29.4412,-92.0613,1002.961,11111222 
WAVCIS,ioos:station:WAVCIS:CSI03:1,2012-06-06T21:00:00Z,29.4412,-92.0613,1002.109,11111222 
WAVCIS,ioos:station:WAVCIS:CSI03:1,2012-06-06T22:00:00Z,29.4412,-92.0613,1001.81,11111222 
WAVCIS,ioos:station:WAVCIS:CSI03:1,2012-06-06T23:00:00Z,29.4412,-92.0613,1002.557,11111222 
WAVCIS,ioos:station:WAVCIS:CSI03:1,2012-06-07T00:00:00Z,29.4412,-92.0613,1003.74,11111222 
WAVCIS,ioos:station:WAVCIS:CSI03:1,2012-06-07T01:00:00Z,29.4412,-92.0613,1005.22,11111222 
WAVCIS,ioos:station:WAVCIS:CSI03:1,2012-06-07T02:00:00Z,29.4412,-92.0613,1004.46,11111222 
WAVCIS,ioos:station:WAVCIS:CSI03:1,2012-06-07T03:00:00Z,29.4412,-92.0613,1004.13,11111222 
WAVCIS,ioos:station:WAVCIS:CSI03:1,2012-06-07T04:00:00Z,29.4412,-92.0613,1004.34,11111222 
WAVCIS,ioos:station:WAVCIS:CSI03:1,2012-06-07T05:00:00Z,29.4412,-92.0613,1004.66,11111222 
WAVCIS,ioos:station:WAVCIS:CSI03:1,2012-06-07T06:00:00Z,29.4412,-92.0613,1004.22,11111222 
WAVCIS,ioos:station:WAVCIS:CSI03:1,2012-06-07T07:00:00Z,29.4412,-92.0613,1004.32,11111222 
WAVCIS,ioos:station:WAVCIS:CSI03:1,2012-06-07T08:00:00Z,29.4412,-92.0613,1004.16,11111222 
WAVCIS,ioos:station:WAVCIS:CSI03:1,2012-06-07T09:00:00Z,29.4412,-92.0613,1004.01,11111222 
WAVCIS,ioos:station:WAVCIS:CSI03:1,2012-06-07T10:00:00Z,29.4412,-92.0613,1003.78,11111222 
WAVCIS,ioos:station:WAVCIS:CSI03:1,2012-06-07T11:00:00Z,29.4412,-92.0613,1004.57,11111222 
WAVCIS,ioos:station:WAVCIS:CSI03:1,2012-06-07T12:00:00Z,29.4412,-92.0613,1005.05,11111222 
WAVCIS,ioos:station:WAVCIS:CSI03:1,2012-06-07T13:00:00Z,29.4412,-92.0613,1005.2,11111222 
WAVCIS,ioos:station:WAVCIS:CSI03:1,2012-06-07T14:00:00Z,29.4412,-92.0613,1005.66,11111222 
WAVCIS,ioos:station:WAVCIS:CSI03:1,2012-06-07T15:00:00Z,29.4412,-92.0613,1005.93,11111222 
WAVCIS,ioos:station:WAVCIS:CSI03:1,2012-06-07T16:00:00Z,29.4412,-92.0613,1005.94,11111222 
WAVCIS,ioos:station:WAVCIS:CSI03:1,2012-06-07T17:00:00Z,29.4412,-92.0613,1005.86,11111222 
WAVCIS,ioos:station:WAVCIS:CSI03:1,2012-06-07T18:00:00Z,29.4412,-92.0613,1005.75,11111222 
WAVCIS,ioos:station:WAVCIS:CSI03:1,2012-06-07T19:00:00Z,29.4412,-92.0613,1005.32,11111222 
WAVCIS,ioos:station:WAVCIS:CSI03:1,2012-06-07T20:00:00Z,29.4412,-92.0613,1005.12,11111222 
WAVCIS,ioos:station:WAVCIS:CSI03:1,2012-06-07T21:00:00Z,29.4412,-92.0613,1004.67,11111222 
WAVCIS,ioos:station:WAVCIS:CSI03:1,2012-06-07T22:00:00Z,29.4412,-92.0613,1004.22,11111222 
WAVCIS,ioos:station:WAVCIS:CSI03:1,2012-06-07T23:00:00Z,29.4412,-92.0613,1004.54,11111222 
WAVCIS,ioos:station:WAVCIS:CSI03:1,2012-06-08T00:00:00Z,29.4412,-92.0613,1005.77,11111222 
WAVCIS,ioos:station:WAVCIS:CSI03:1,2012-06-08T01:00:00Z,29.4412,-92.0613,1005.3,11111222 
WAVCIS,ioos:station:WAVCIS:CSI03:1,2012-06-08T02:00:00Z,29.4412,-92.0613,1005.45,11111222 
WAVCIS,ioos:station:WAVCIS:CSI03:1,2012-06-08T03:00:00Z,29.4412,-92.0613,1005.65,11111222 
WAVCIS,ioos:station:WAVCIS:CSI03:1,2012-06-08T04:00:00Z,29.4412,-92.0613,1006.18,11111222 
WAVCIS,ioos:station:WAVCIS:CSI03:1,2012-06-08T05:00:00Z,29.4412,-92.0613,1006.18,11111222 
WAVCIS,ioos:station:WAVCIS:CSI03:1,2012-06-08T06:00:00Z,29.4412,-92.0613,1005.68,11111222 
WAVCIS,ioos:station:WAVCIS:CSI03:1,2012-06-08T07:00:00Z,29.4412,-92.0613,1005.35,11111222 
WAVCIS,ioos:station:WAVCIS:CSI03:1,2012-06-08T08:00:00Z,29.4412,-92.0613,1004.8,11111222 
WAVCIS,ioos:station:WAVCIS:CSI03:1,2012-06-08T09:00:00Z,29.4412,-92.0613,1004.55,11111222 
WAVCIS,ioos:station:WAVCIS:CSI03:1,2012-06-08T10:00:00Z,29.4412,-92.0613,1004.74,11111222 
WAVCIS,ioos:station:WAVCIS:CSI03:1,2012-06-08T11:00:00Z,29.4412,-92.0613,1005.04,11111222 
WAVCIS,ioos:station:WAVCIS:CSI03:1,2012-06-08T12:00:00Z,29.4412,-92.0613,1005.52,11111222 
WAVCIS,ioos:station:WAVCIS:CSI03:1,2012-06-08T13:00:00Z,29.4412,-92.0613,1005.83,11111222 
WAVCIS,ioos:station:WAVCIS:CSI03:1,2012-06-08T14:00:00Z,29.4412,-92.0613,1006.55,11111222 
WAVCIS,ioos:station:WAVCIS:CSI03:1,2012-06-08T15:00:00Z,29.4412,-92.0613,1006.41,11111222 
WAVCIS,ioos:station:WAVCIS:CSI03:1,2012-06-08T16:00:00Z,29.4412,-92.0613,1005.99,11111222 
WAVCIS,ioos:station:WAVCIS:CSI03:1,2012-06-08T17:00:00Z,29.4412,-92.0613,1005.28,11111222 
WAVCIS,ioos:station:WAVCIS:CSI03:1,2012-06-08T18:00:00Z,29.4412,-92.0613,1005.27,11111222 
WAVCIS,ioos:station:WAVCIS:CSI03:1,2012-06-08T19:00:00Z,29.4412,-92.0613,1004.63,11111222 
WAVCIS,ioos:station:WAVCIS:CSI03:1,2012-06-08T20:00:00Z,29.4412,-92.0613,1004.19,11111222 
WAVCIS,ioos:station:WAVCIS:CSI03:1,2012-06-08T21:00:00Z,29.4412,-92.0613,1004.55,11111222 
WAVCIS,ioos:station:WAVCIS:CSI03:1,2012-06-08T22:00:00Z,29.4412,-92.0613,1003.97,11111222 
WAVCIS,ioos:station:WAVCIS:CSI03:1,2012-06-08T23:00:00Z,29.4412,-92.0613,1003.72,11111222 
WAVCIS,ioos:station:WAVCIS:CSI03:1,2012-06-09T00:00:00Z,29.4412,-92.0613,1003.61,11111222 
WAVCIS,ioos:station:WAVCIS:CSI03:1,2012-06-09T01:00:00Z,29.4412,-92.0613,1003.73,11111222 
WAVCIS,ioos:station:WAVCIS:CSI03:1,2012-06-09T02:00:00Z,29.4412,-92.0613,1004.33,11111222 
WAVCIS,ioos:station:WAVCIS:CSI03:1,2012-06-09T03:00:00Z,29.4412,-92.0613,1004.46,11111222 
WAVCIS,ioos:station:WAVCIS:CSI03:1,2012-06-09T04:00:00Z,29.4412,-92.0613,1004.64,11111222 
WAVCIS,ioos:station:WAVCIS:CSI03:1,2012-06-09T05:00:00Z,29.4412,-92.0613,1004.38,11111222 
WAVCIS,ioos:station:WAVCIS:CSI03:1,2012-06-09T06:00:00Z,29.4412,-92.0613,1003.79,11111222 
WAVCIS,ioos:station:WAVCIS:CSI03:1,2012-06-09T07:00:00Z,29.4412,-92.0613,1003.34,11111222 
WAVCIS,ioos:station:WAVCIS:CSI03:1,2012-06-09T08:00:00Z,29.4412,-92.0613,1002.904,11111222 
WAVCIS,ioos:station:WAVCIS:CSI03:1,2012-06-09T09:00:00Z,29.4412,-92.0613,1002.716,11111222 
WAVCIS,ioos:station:WAVCIS:CSI03:1,2012-06-09T10:00:00Z,29.4412,-92.0613,1002.501,11111222 
WAVCIS,ioos:station:WAVCIS:CSI03:1,2012-06-09T11:00:00Z,29.4412,-92.0613,1002.956,11111222 
WAVCIS,ioos:station:WAVCIS:CSI03:1,2012-06-09T12:00:00Z,29.4412,-92.0613,1003.2,11111222 
WAVCIS,ioos:station:WAVCIS:CSI03:1,2012-06-09T13:00:00Z,29.4412,-92.0613,1003.48,11111222 
WAVCIS,ioos:station:WAVCIS:CSI03:1,2012-06-09T14:00:00Z,29.4412,-92.0613,1003.87,11111222 
WAVCIS,ioos:station:WAVCIS:CSI03:1,2012-06-09T15:00:00Z,29.4412,-92.0613,1004.17,11111222 
WAVCIS,ioos:station:WAVCIS:CSI03:1,2012-06-09T16:00:00Z,29.4412,-92.0613,1003.84,11111222 
WAVCIS,ioos:station:WAVCIS:CSI03:1,2012-06-09T17:00:00Z,29.4412,-92.0613,1003.47,11111222 
WAVCIS,ioos:station:WAVCIS:CSI03:1,2012-06-09T18:00:00Z,29.4412,-92.0613,1003.11,11111222 
WAVCIS,ioos:station:WAVCIS:CSI03:1,2012-06-09T19:00:00Z,29.4412,-92.0613,1002.887,11111222 
WAVCIS,ioos:station:WAVCIS:CSI03:1,2012-06-09T20:00:00Z,29.4412,-92.0613,1002.38,11111222 
WAVCIS,ioos:station:WAVCIS:CSI03:1,2012-06-09T21:00:00Z,29.4412,-92.0613,1001.997,11111222 
WAVCIS,ioos:station:WAVCIS:CSI03:1,2012-06-09T22:00:00Z,29.4412,-92.0613,1001.365,11111222 
WAVCIS,ioos:station:WAVCIS:CSI03:1,2012-06-09T23:00:00Z,29.4412,-92.0613,1001.562,11111222 
WAVCIS,ioos:station:WAVCIS:CSI03:1,2012-06-10T00:00:00Z,29.4412,-92.0613,1001.463,11111222 
WAVCIS,ioos:station:WAVCIS:CSI03:1,2012-06-10T01:00:00Z,29.4412,-92.0613,1001.965,11111222 
WAVCIS,ioos:station:WAVCIS:CSI03:1,2012-06-10T02:00:00Z,29.4412,-92.0613,1001.989,11111222 
WAVCIS,ioos:station:WAVCIS:CSI03:1,2012-06-10T03:00:00Z,29.4412,-92.0613,1002.67,11111222 
WAVCIS,ioos:station:WAVCIS:CSI03:1,2012-06-10T04:00:00Z,29.4412,-92.0613,1002.248,11111222 
WAVCIS,ioos:station:WAVCIS:CSI03:1,2012-06-10T05:00:00Z,29.4412,-92.0613,1002.304,11111222 
WAVCIS,ioos:station:WAVCIS:CSI03:1,2012-06-10T06:00:00Z,29.4412,-92.0613,1002.518,11111222 
WAVCIS,ioos:station:WAVCIS:CSI03:1,2012-06-10T07:00:00Z,29.4412,-92.0613,1002.242,11111222 
WAVCIS,ioos:station:WAVCIS:CSI03:1,2012-06-10T08:00:00Z,29.4412,-92.0613,1002.026,11111222 
WAVCIS,ioos:station:WAVCIS:CSI03:1,2012-06-10T09:00:00Z,29.4412,-92.0613,1001.7,11111222 
WAVCIS,ioos:station:WAVCIS:CSI03:1,2012-06-10T10:00:00Z,29.4412,-92.0613,1001.59,11111222 
WAVCIS,ioos:station:WAVCIS:CSI03:1,2012-06-10T11:00:00Z,29.4412,-92.0613,1002.259,11111222 
WAVCIS,ioos:station:WAVCIS:CSI03:1,2012-06-10T12:00:00Z,29.4412,-92.0613,1002.593,11111222 
WAVCIS,ioos:station:WAVCIS:CSI03:1,2012-06-10T13:00:00Z,29.4412,-92.0613,1003.16,11111222 
WAVCIS,ioos:station:WAVCIS:CSI03:1,2012-06-10T14:00:00Z,29.4412,-92.0613,1003.91,11111222 
WAVCIS,ioos:station:WAVCIS:CSI03:1,2012-06-10T15:00:00Z,29.4412,-92.0613,1004.4,11111222 
WAVCIS,ioos:station:WAVCIS:CSI03:1,2012-06-10T16:00:00Z,29.4412,-92.0613,1005.12,11111222 
WAVCIS,ioos:station:WAVCIS:CSI03:1,2012-06-10T17:00:00Z,29.4412,-92.0613,1005.26,11111222 
WAVCIS,ioos:station:WAVCIS:CSI03:1,2012-06-10T18:00:00Z,29.4412,-92.0613,1005.56,11111222 
WAVCIS,ioos:station:WAVCIS:CSI03:1,2012-06-10T19:00:00Z,29.4412,-92.0613,1005.43,11111222 
WAVCIS,ioos:station:WAVCIS:CSI03:1,2012-06-10T20:00:00Z,29.4412,-92.0613,1004.96,11111222 
WAVCIS,ioos:station:WAVCIS:CSI03:1,2012-06-10T21:00:00Z,29.4412,-92.0613,1004.95,11111222 
WAVCIS,ioos:station:WAVCIS:CSI03:1,2012-06-10T22:00:00Z,29.4412,-92.0613,1005.22,11111222 
WAVCIS,ioos:station:WAVCIS:CSI03:1,2012-06-10T23:00:00Z,29.4412,-92.0613,1005.45,11111222 
WAVCIS,ioos:station:WAVCIS:CSI03:1,2012-06-11T00:00:00Z,29.4412,-92.0613,1005.64,11111222 
WAVCIS,ioos:station:WAVCIS:CSI03:1,2012-06-11T01:00:00Z,29.4412,-92.0613,1005.75,11111222 
WAVCIS,ioos:station:WAVCIS:CSI03:1,2012-06-11T02:00:00Z,29.4412,-92.0613,1005.77,11111222 
WAVCIS,ioos:station:WAVCIS:CSI03:1,2012-06-11T03:00:00Z,29.4412,-92.0613,1005.92,11111222 
WAVCIS,ioos:station:WAVCIS:CSI03:1,2012-06-11T04:00:00Z,29.4412,-92.0613,1006.21,11111222 
WAVCIS,ioos:station:WAVCIS:CSI03:1,2012-06-11T05:00:00Z,29.4412,-92.0613,1006.56,11111222 
WAVCIS,ioos:station:WAVCIS:CSI03:1,2012-06-11T06:00:00Z,29.4412,-92.0613,1006.47,11111222 
WAVCIS,ioos:station:WAVCIS:CSI03:1,2012-06-11T07:00:00Z,29.4412,-92.0613,1006.5,11111222 
WAVCIS,ioos:station:WAVCIS:CSI03:1,2012-06-11T08:00:00Z,29.4412,-92.0613,1006.58,11111222 
WAVCIS,ioos:station:WAVCIS:CSI03:1,2012-06-11T09:00:00Z,29.4412,-92.0613,1006.84,11111222 
WAVCIS,ioos:station:WAVCIS:CSI03:1,2012-06-11T10:00:00Z,29.4412,-92.0613,1007.34,11111222 
WAVCIS,ioos:station:WAVCIS:CSI03:1,2012-06-11T11:00:00Z,29.4412,-92.0613,1007.9,11111222 
WAVCIS,ioos:station:WAVCIS:CSI03:1,2012-06-11T12:00:00Z,29.4412,-92.0613,1008.49,11111222 
WAVCIS,ioos:station:WAVCIS:CSI03:1,2012-06-11T13:00:00Z,29.4412,-92.0613,1009.06,11111222 
WAVCIS,ioos:station:WAVCIS:CSI03:1,2012-06-11T14:00:00Z,29.4412,-92.0613,1009.49,11111222 
WAVCIS,ioos:station:WAVCIS:CSI03:1,2012-06-11T15:00:00Z,29.4412,-92.0613,1009.64,11111222 
WAVCIS,ioos:station:WAVCIS:CSI03:1,2012-06-11T16:00:00Z,29.4412,-92.0613,1010.1,11111222 
WAVCIS,ioos:station:WAVCIS:CSI03:1,2012-06-11T17:00:00Z,29.4412,-92.0613,1010.58,11111222 
WAVCIS,ioos:station:WAVCIS:CSI03:1,2012-06-11T18:00:00Z,29.4412,-92.0613,1010.52,11111222 
WAVCIS,ioos:station:WAVCIS:CSI03:1,2012-06-11T19:00:00Z,29.4412,-92.0613,1010.35,11111222 
WAVCIS,ioos:station:WAVCIS:CSI03:1,2012-06-11T20:00:00Z,29.4412,-92.0613,1010.08,11111222 
WAVCIS,ioos:station:WAVCIS:CSI03:1,2012-06-11T21:00:00Z,29.4412,-92.0613,1009.77,11111222 